Вернуться в каталог

ARIANE 5 DEB

SYLDA

АктивенHEO
NORAD 44803·DEBRIS·🇫🇷 France

Запущен Nov 26, 2019 с Guiana Space Centre

Loading…

Ближайшие Пролёты (ближайшие 24 часа)

TLE

СвежийSource: Space-Track

Эпоха: Sep 14, 2026, 01:16 UTC

1 44803U 19080D   26257.05309006  .00164243  00000-0  40534-2 0  9990
2 44803   5.3243 131.9332 3633942 303.2990  26.9679  8.19796825111216

Отслеживайте ARIANE 5 DEB в реальном времени с AllMySat

Download on the App Store